Time,TemperatureF,DewpointF,PressureIn,WindDirection,WindDirectionDegrees,WindSpeedMPH,WindSpeedGustMPH,Humidity,HourlyPrecipIn,Conditions,Clouds,dailyrainin,SolarRadiationWatts/m^2,SoftwareType,DateUTC
2013-05-11 00:22:00,76.0,68.0,30.11,North,357,15.0,24.0,76,0.00,,,0.00,0.000000,,2013-05-11 10:22:00,
2013-05-11 00:33:00,76.0,68.0,30.11,North,357,15.0,24.0,76,0.00,,,0.00,0.000000,,2013-05-11 10:33:00,
2013-05-11 00:42:00,76.0,68.0,30.11,North,357,15.0,24.0,76,0.00,,,0.00,0.000000,,2013-05-11 10:42:00,
2013-05-11 00:52:00,76.0,68.0,30.11,North,357,15.0,24.0,76,0.00,,,0.00,0.000000,,2013-05-11 10:52:00,
2013-05-11 01:11:00,76.0,68.0,30.09,North,8,13.0,26.0,76,0.00,,,0.00,0.000000,,2013-05-11 11:11:00,
2013-05-11 01:21:00,76.0,68.0,30.09,North,8,13.0,26.0,76,0.00,,,0.00,0.000000,,2013-05-11 11:21:00,
2013-05-11 01:32:00,76.0,68.0,30.09,North,8,13.0,26.0,76,0.00,,,0.00,0.000000,,2013-05-11 11:32:00,
2013-05-11 01:42:00,76.0,68.0,30.09,North,8,13.0,26.0,76,0.00,,,0.00,0.000000,,2013-05-11 11:42:00,
2013-05-11 01:51:00,76.0,68.0,30.09,North,8,13.0,26.0,76,0.00,,,0.00,0.000000,,2013-05-11 11:51:00,
2013-05-11 02:21:00,74.0,66.0,30.06,North,11,14.0,25.0,77,0.00,,,-99.99,0.000000,,2013-05-11 12:21:00,
2013-05-11 02:32:00,74.0,66.0,30.06,North,11,14.0,25.0,77,0.00,,,-99.99,0.000000,,2013-05-11 12:32:00,
2013-05-11 02:42:00,74.0,66.0,30.06,North,11,14.0,25.0,77,0.00,,,-99.99,0.000000,,2013-05-11 12:42:00,
2013-05-11 02:51:00,74.0,66.0,30.06,North,11,14.0,25.0,77,0.00,,,-99.99,0.000000,,2013-05-11 12:51:00,
2013-05-11 03:21:00,73.0,65.0,30.05,North,7,13.0,22.0,77,0.00,,,-99.99,0.000000,,2013-05-11 13:21:00,
2013-05-11 03:31:00,73.0,65.0,30.05,North,7,13.0,22.0,77,0.00,,,-99.99,0.000000,,2013-05-11 13:31:00,
2013-05-11 03:41:00,73.0,65.0,30.05,North,7,13.0,22.0,77,0.00,,,-99.99,0.000000,,2013-05-11 13:41:00,
2013-05-11 03:52:00,73.0,65.0,30.05,North,7,13.0,22.0,77,0.00,,,-99.99,0.000000,,2013-05-11 13:52:00,
2013-05-11 04:21:00,75.0,67.0,30.04,North,9,14.0,25.0,75,0.00,,,-99.99,0.000000,,2013-05-11 14:21:00,
2013-05-11 04:32:00,75.0,67.0,30.04,North,9,14.0,25.0,75,0.00,,,-99.99,0.000000,,2013-05-11 14:32:00,
2013-05-11 04:41:00,75.0,67.0,30.04,North,9,14.0,25.0,75,0.00,,,-99.99,0.000000,,2013-05-11 14:41:00,
2013-05-11 04:51:00,75.0,67.0,30.04,North,9,14.0,25.0,75,0.00,,,-99.99,0.000000,,2013-05-11 14:51:00,
2013-05-11 04:53:00,74.0,66.0,30.05,North,8,14.0,25.0,76,0.00,,,0.00,0.000000,,2013-05-11 14:53:00,
2013-05-11 05:11:00,74.0,66.0,30.05,North,8,14.0,25.0,76,0.00,,,0.00,0.000000,,2013-05-11 15:11:00,
2013-05-11 05:21:00,74.0,66.0,30.05,North,8,14.0,25.0,76,0.00,,,0.00,0.000000,,2013-05-11 15:21:00,
2013-05-11 05:32:00,74.0,66.0,30.05,North,8,14.0,25.0,76,0.00,,,0.00,0.000000,,2013-05-11 15:32:00,
2013-05-11 05:42:00,74.0,66.0,30.05,North,8,14.0,25.0,76,0.00,,,0.00,0.000000,,2013-05-11 15:42:00,
2013-05-11 06:22:00,73.0,66.0,30.06,North,5,13.0,23.0,78,0.00,,,0.00,0.000000,,2013-05-11 16:22:00,
2013-05-11 06:33:00,73.0,66.0,30.06,North,5,13.0,23.0,78,0.00,,,0.00,0.000000,,2013-05-11 16:33:00,
2013-05-11 06:42:00,73.0,66.0,30.06,North,5,13.0,23.0,78,0.00,,,0.00,0.000000,,2013-05-11 16:42:00,
2013-05-11 06:52:00,73.0,66.0,30.06,North,5,13.0,23.0,78,0.00,,,0.00,0.000000,,2013-05-11 16:52:00,
2013-05-11 07:12:00,76.0,67.0,30.09,ENE,66,6.0,24.0,74,0.00,,,0.00,22.000000,,2013-05-11 17:12:00,
2013-05-11 07:22:00,76.0,67.0,30.09,ENE,66,6.0,24.0,74,0.00,,,0.00,22.000000,,2013-05-11 17:22:00,
2013-05-11 07:31:00,76.0,67.0,30.09,ENE,66,6.0,24.0,74,0.00,,,0.00,22.000000,,2013-05-11 17:31:00,
2013-05-11 07:41:00,76.0,67.0,30.09,ENE,66,6.0,24.0,74,0.00,,,0.00,22.000000,,2013-05-11 17:41:00,
2013-05-11 07:51:00,76.0,67.0,30.09,ENE,66,6.0,24.0,74,0.00,,,0.00,22.000000,,2013-05-11 17:51:00,
2013-05-11 08:21:00,78.0,67.0,30.09,North,6,13.0,23.0,69,0.00,,,0.00,128.000000,,2013-05-11 18:21:00,
2013-05-11 08:32:00,78.0,67.0,30.09,North,6,13.0,23.0,69,0.00,,,0.00,128.000000,,2013-05-11 18:32:00,
2013-05-11 08:41:00,78.0,67.0,30.09,North,6,13.0,23.0,69,0.00,,,0.00,128.000000,,2013-05-11 18:41:00,
2013-05-11 08:51:00,78.0,67.0,30.09,North,6,13.0,23.0,69,0.00,,,0.00,128.000000,,2013-05-11 18:51:00,
2013-05-11 09:11:00,79.0,66.0,30.10,NNE,32,8.0,20.0,64,0.00,,,0.00,286.000000,,2013-05-11 19:11:00,
2013-05-11 09:21:00,79.0,66.0,30.10,NNE,32,8.0,20.0,64,0.00,,,0.00,286.000000,,2013-05-11 19:21:00,
2013-05-11 09:32:00,79.0,66.0,30.10,NNE,32,8.0,20.0,64,0.00,,,0.00,286.000000,,2013-05-11 19:32:00,
2013-05-11 09:41:00,79.0,66.0,30.10,NNE,32,8.0,20.0,64,0.00,,,0.00,286.000000,,2013-05-11 19:41:00,
2013-05-11 09:52:00,79.0,66.0,30.10,NNE,32,8.0,20.0,64,0.00,,,0.00,286.000000,,2013-05-11 19:52:00,
2013-05-11 10:22:00,82.0,68.0,30.10,North,8,8.0,15.0,62,0.00,,,0.00,370.000000,,2013-05-11 20:22:00,
2013-05-11 10:32:00,82.0,68.0,30.10,North,8,8.0,15.0,62,0.00,,,0.00,370.000000,,2013-05-11 20:32:00,
2013-05-11 10:42:00,82.0,68.0,30.10,North,8,8.0,15.0,62,0.00,,,0.00,370.000000,,2013-05-11 20:42:00,
2013-05-11 10:52:00,82.0,68.0,30.10,North,8,8.0,15.0,62,0.00,,,0.00,370.000000,,2013-05-11 20:52:00,
2013-05-11 11:11:00,78.0,67.0,30.09,WNW,294,8.0,23.0,69,0.00,,,0.00,338.000000,,2013-05-11 21:11:00,
2013-05-11 11:21:00,78.0,67.0,30.09,WNW,294,8.0,23.0,69,0.00,,,0.00,338.000000,,2013-05-11 21:21:00,
2013-05-11 11:33:00,78.0,67.0,30.09,WNW,294,8.0,23.0,69,0.00,,,0.00,338.000000,,2013-05-11 21:33:00,
2013-05-11 11:43:00,78.0,67.0,30.09,WNW,294,8.0,23.0,69,0.00,,,0.00,338.000000,,2013-05-11 21:43:00,
2013-05-11 11:52:00,78.0,67.0,30.09,WNW,294,8.0,23.0,69,0.00,,,0.00,338.000000,,2013-05-11 21:52:00,
2013-05-11 12:23:00,80.0,66.0,30.08,NNW,327,11.0,18.0,62,0.00,,,0.00,277.000000,,2013-05-11 22:23:00,
2013-05-11 12:33:00,80.0,66.0,30.08,NNW,327,11.0,18.0,62,0.00,,,0.00,277.000000,,2013-05-11 22:33:00,
2013-05-11 12:42:00,80.0,66.0,30.08,NNW,327,11.0,18.0,62,0.00,,,0.00,277.000000,,2013-05-11 22:42:00,
2013-05-11 12:52:00,80.0,66.0,30.08,NNW,327,11.0,18.0,62,0.00,,,0.00,277.000000,,2013-05-11 22:52:00,
2013-05-11 13:22:00,78.0,68.0,30.07,NW,306,17.0,24.0,71,0.00,,,-99.99,506.000000,,2013-05-11 23:22:00,
2013-05-11 13:32:00,78.0,68.0,30.07,NW,306,17.0,24.0,71,0.00,,,-99.99,506.000000,,2013-05-11 23:32:00,
2013-05-11 13:42:00,78.0,68.0,30.07,NW,306,17.0,24.0,71,0.00,,,-99.99,506.000000,,2013-05-11 23:42:00,
2013-05-11 13:52:00,78.0,68.0,30.07,NW,306,17.0,24.0,71,0.00,,,-99.99,506.000000,,2013-05-11 23:52:00,
2013-05-11 14:21:00,80.0,68.0,30.05,WNW,297,15.0,24.0,68,0.00,,,0.00,760.000000,,2013-05-12 00:21:00,
2013-05-11 14:32:00,80.0,68.0,30.05,WNW,297,15.0,24.0,68,0.00,,,0.00,760.000000,,2013-05-12 00:32:00,
2013-05-11 14:42:00,80.0,68.0,30.05,WNW,297,15.0,24.0,68,0.00,,,0.00,760.000000,,2013-05-12 00:42:00,
2013-05-11 14:52:00,80.0,68.0,30.05,WNW,297,15.0,24.0,68,0.00,,,0.00,760.000000,,2013-05-12 00:52:00,
2013-05-11 15:11:00,81.0,69.0,30.04,NW,321,10.0,23.0,66,0.00,,,0.00,734.000000,,2013-05-12 01:11:00,
2013-05-11 15:21:00,81.0,69.0,30.04,NW,321,10.0,23.0,66,0.00,,,0.00,734.000000,,2013-05-12 01:21:00,
2013-05-11 15:31:00,81.0,69.0,30.04,NW,321,10.0,23.0,66,0.00,,,0.00,734.000000,,2013-05-12 01:31:00,
2013-05-11 15:41:00,81.0,69.0,30.04,NW,321,10.0,23.0,66,0.00,,,0.00,734.000000,,2013-05-12 01:41:00,
2013-05-11 15:52:00,81.0,69.0,30.04,NW,321,10.0,23.0,66,0.00,,,0.00,734.000000,,2013-05-12 01:52:00,
2013-05-11 16:11:00,79.0,67.0,30.03,NW,309,12.0,19.0,67,0.00,,,0.00,558.000000,,2013-05-12 02:11:00,
2013-05-11 16:22:00,79.0,67.0,30.03,NW,309,12.0,19.0,67,0.00,,,0.00,558.000000,,2013-05-12 02:22:00,
2013-05-11 16:31:00,79.0,67.0,30.03,NW,309,12.0,19.0,67,0.00,,,0.00,558.000000,,2013-05-12 02:31:00,
2013-05-11 16:41:00,79.0,67.0,30.03,NW,309,12.0,19.0,67,0.00,,,0.00,558.000000,,2013-05-12 02:41:00,
2013-05-11 16:52:00,79.0,67.0,30.03,NW,309,12.0,19.0,67,0.00,,,0.00,558.000000,,2013-05-12 02:52:00,
2013-05-11 16:53:00,79.0,67.0,30.03,North,1,15.0,27.0,66,0.00,,,0.00,203.000000,,2013-05-12 02:53:00,
2013-05-11 17:22:00,79.0,67.0,30.03,North,1,15.0,27.0,66,0.00,,,0.00,203.000000,,2013-05-12 03:22:00,
2013-05-11 17:32:00,79.0,67.0,30.03,North,1,15.0,27.0,66,0.00,,,0.00,203.000000,,2013-05-12 03:32:00,
2013-05-11 17:42:00,79.0,67.0,30.03,North,1,15.0,27.0,66,0.00,,,0.00,203.000000,,2013-05-12 03:42:00,
2013-05-11 18:22:00,76.0,66.0,30.05,North,2,16.0,28.0,72,0.00,,,0.00,91.000000,,2013-05-12 04:22:00,
2013-05-11 18:33:00,76.0,66.0,30.05,North,2,16.0,28.0,72,0.00,,,0.00,91.000000,,2013-05-12 04:33:00,
2013-05-11 18:43:00,76.0,66.0,30.05,North,2,16.0,28.0,72,0.00,,,0.00,91.000000,,2013-05-12 04:43:00,
2013-05-11 18:52:00,76.0,66.0,30.05,North,2,16.0,28.0,72,0.00,,,0.00,91.000000,,2013-05-12 04:52:00,
2013-05-11 19:11:00,75.0,66.0,30.05,North,9,20.0,33.0,73,0.00,,,0.00,56.000000,,2013-05-12 05:11:00,
2013-05-11 19:22:00,75.0,66.0,30.05,North,9,20.0,33.0,73,0.00,,,0.00,56.000000,,2013-05-12 05:22:00,
2013-05-11 19:31:00,75.0,66.0,30.05,North,9,20.0,33.0,73,0.00,,,0.00,56.000000,,2013-05-12 05:31:00,
2013-05-11 19:42:00,75.0,66.0,30.05,North,9,20.0,33.0,73,0.00,,,0.00,56.000000,,2013-05-12 05:42:00,
2013-05-11 19:51:00,75.0,66.0,30.05,North,9,20.0,33.0,73,0.00,,,0.00,56.000000,,2013-05-12 05:51:00,
2013-05-11 20:21:00,74.0,66.0,30.06,North,355,20.0,35.0,76,0.00,,,0.00,0.000000,,2013-05-12 06:21:00,
2013-05-11 20:32:00,74.0,66.0,30.06,North,355,20.0,35.0,76,0.00,,,0.00,0.000000,,2013-05-12 06:32:00,
2013-05-11 20:42:00,74.0,66.0,30.06,North,355,20.0,35.0,76,0.00,,,0.00,0.000000,,2013-05-12 06:42:00,
2013-05-11 20:51:00,74.0,66.0,30.06,North,355,20.0,35.0,76,0.00,,,0.00,0.000000,,2013-05-12 06:51:00,
2013-05-11 21:11:00,73.0,62.0,30.09,North,9,20.0,36.0,69,0.00,,,0.00,0.000000,,2013-05-12 07:11:00,
2013-05-11 21:21:00,73.0,62.0,30.09,North,9,20.0,36.0,69,0.00,,,0.00,0.000000,,2013-05-12 07:21:00,
2013-05-11 21:32:00,73.0,62.0,30.09,North,9,20.0,36.0,69,0.00,,,0.00,0.000000,,2013-05-12 07:32:00,
2013-05-11 21:42:00,73.0,62.0,30.09,North,9,20.0,36.0,69,0.00,,,0.00,0.000000,,2013-05-12 07:42:00,
2013-05-11 21:51:00,73.0,62.0,30.09,North,9,20.0,36.0,69,0.00,,,0.00,0.000000,,2013-05-12 07:51:00,
2013-05-11 22:11:00,73.0,63.0,30.09,North,359,17.0,33.0,71,0.00,,,0.00,0.000000,,2013-05-12 08:11:00,
2013-05-11 22:21:00,73.0,63.0,30.09,North,359,17.0,33.0,71,0.00,,,0.00,0.000000,,2013-05-12 08:21:00,
2013-05-11 22:32:00,73.0,63.0,30.09,North,359,17.0,33.0,71,0.00,,,0.00,0.000000,,2013-05-12 08:32:00,
2013-05-11 22:41:00,73.0,63.0,30.09,North,359,17.0,33.0,71,0.00,,,0.00,0.000000,,2013-05-12 08:41:00,
2013-05-11 22:52:00,73.0,63.0,30.09,North,359,17.0,33.0,71,0.00,,,0.00,0.000000,,2013-05-12 08:52:00,
2013-05-11 23:11:00,76.0,65.0,30.09,North,351,18.0,31.0,70,0.00,,,0.00,0.000000,,2013-05-12 09:11:00,
2013-05-11 23:21:00,76.0,65.0,30.09,North,351,18.0,31.0,70,0.00,,,0.00,0.000000,,2013-05-12 09:21:00,
2013-05-11 23:32:00,76.0,65.0,30.09,North,351,18.0,31.0,70,0.00,,,0.00,0.000000,,2013-05-12 09:32:00,
2013-05-11 23:42:00,76.0,65.0,30.09,North,351,18.0,31.0,70,0.00,,,0.00,0.000000,,2013-05-12 09:42:00,
2013-05-11 23:52:00,76.0,65.0,30.09,North,351,18.0,31.0,70,0.00,,,0.00,0.000000,,2013-05-12 09:52:00,